Regional Weather Roundup
Issued by NWS

Home | Current Version | Previous Version | Graphics & Text | Print | Product List | Glossary On
Versions: 1 2 3 4 5 6 7 8 9 10 11 12 13 14 15 16 17 18 19 20 21 22 23 24 25 26 27 28 29 30 31 32 33 34 35 36 37 38 39 40 41 42 43 44 45 46 47 48 49 50
000
ASUS43 KLOT 210506
RWRIL

ILLINOIS REGIONAL WEATHER ROUNDUP
NATIONAL WEATHER SERVICE CHICAGO/ROMEOVILLE IL
1200 AM CDT THU AUG 21 2014

NOTE: "FAIR" INDICATES FEW OR NO CLOUDS BELOW 12,000 FEET WITH NO
SIGNIFICANT WEATHER AND/OR OBSTRUCTIONS TO VISIBILITY.

* THESE STATIONS ARE NOT UNDER NWS QUALITY CONTROL. THEY ALSO MAY NOT
  REPORT WEATHER SUCH AS PRECIPITATION OR FOG.

ILZ001-002-007-009-015-016-024-210600-
NORTHWEST ILLINOIS

CITY           SKY/WX    TMP DP  RH WIND       PRES   REMARKS
MOLINE         CLEAR     71  69  93 E7        29.92S
STERLING*      MOCLDY    70  66  88 SE5       29.96R
SAVANNA*       PTCLDY    69  66  90 S5        29.94R
$$

ILZ003-004-008-010-011-017-018-210600-
NORTH CENTRAL ILLINOIS

CITY           SKY/WX    TMP DP  RH WIND       PRES   REMARKS
ROCKFORD       MOCLDY    71  67  87 E3        29.96S
FREEPORT*      MOCLDY    68  66  94 CALM      29.97S
ROCHELLE*      CLOUDY    68  66  93 S5        29.96S
DE KALB*       CLOUDY    69  65  87 CALM      29.97S
PERU*          CLOUDY    72  67  85 SE3       29.97S
$$

ILZ005-006-012>014-019>023-210600-
NORTHEAST ILLINOIS

CITY           SKY/WX    TMP DP  RH WIND       PRES   REMARKS
CHICAGO-OHARE  CLOUDY    75  65  70 CALM      29.95S
CHICAGO-MIDWAY CLOUDY    77  67  71 SW8       29.95S
AURORA         CLOUDY    71  66  84 CALM      29.96F
LANSING*       CLOUDY    71  67  87 SW5       29.97S
JOLIET*        CLOUDY    70  66  87 CALM      29.97S
WAUKEGAN       MOCLDY    68  66  93 N3        29.95R
DUPAGE AIRPORT CLOUDY    72  67  84 S3        29.96S
KANKAKEE*      CLOUDY    69  68  96 CALM      29.99S
WHEELING       MOCLDY    77  68  73 SW3       29.96S
MORRIS*        CLOUDY    71  69  94 CALM      29.97R
ROMEOVILLE*    CLOUDY    70  68  94 S5        29.97S
NORTHERLY ISL    N/A     77  67  71 W6          N/A
$$

LMZ740>746-210600-
SOUTHERN LAKE MICHIGAN

STATION/POSITION SKY/WX   TEMP    WIND        PRES    VSBY  WAVE
                          AIR SEA DIR/SP/G                  HT/PER
                          (F)     (DEG/KT/KT) (MB)    (MI)  (FT/S)
SOUTHERN BUOY              68 68   70/  8/  8 1014.4R         0
WAUKEGAN HARBOR            71     340/  3/  3   N/A
HARRISON CRIB              77     290/  4/  5   N/A
BURNHAM HARBOR             77     300/  3/  9   N/A
CALUMET HARBOR             76     200/  6/  9 1013.3R
MICHIGAN CITY              74     190/  6/  8   N/A
MICHIGAN CITY 6N           73 72  220/  4/  6   N/A           1/ 2
ST. JOSEPH                 73 71  210/  8/ 10   N/A           1/ 3
$$

ILZ025>027-034>036-040-047-049-050-058-095>099-210600-
WEST-CENTRAL ILLINOIS

CITY           SKY/WX    TMP DP  RH WIND       PRES   REMARKS
QUINCY         CLEAR     76  71  85 S10       29.93R
GALESBURG*     CLEAR     73  71  95 SE5       29.93S
MACOMB*        CLEAR     73  72  98 SE6       29.95S
JACKSONVILLE*  CLEAR     76  70  80 S9        29.95S
PITTSFIELD*    PTCLDY    74  69  82 S6        29.96R
$$

ILZ028>032-037-038-041>044-048-051>054-059>061-210600-
CENTRAL ILLINOIS

CITY           SKY/WX    TMP DP  RH WIND       PRES   REMARKS
PONTIAC        CLOUDY    72  70  94 E3        29.97F
DECATUR        PTCLDY    75  69  81 S10       29.96F
PEORIA         PTCLDY    75  70  84 S6        29.95R
LACON*         MOCLDY    72  69  91 E8        29.94F
LINCOLN*       PTCLDY    74  70  89 S7        29.93F
SPRINGFIELD    PTCLDY    75  71  87 S8        29.95F
TAYLORVILLE    PTCLDY    72  70  94 S9        29.96F
$$

ILZ033-039-045-046-055>057-062-063-210600-
EAST-CENTRAL ILLINOIS

CITY           SKY/WX    TMP DP  RH WIND       PRES   REMARKS
CHAMPAIGN      MOCLDY    71  69  93 S6        29.99R
DANVILLE*      RAIN      69  69  97 SE3       29.97F
RANTOUL*       CLOUDY    74  69  85 SE3       29.99S
MATTOON        MOCLDY    74  69  85 S9        30.00R
PARIS*         MOCLDY    71  71 100 S3        29.99F THUNDER
$$

ILZ079-100>102-210600-
SOUTHWEST ILLINOIS

CITY           SKY/WX    TMP DP  RH WIND       PRES   REMARKS
ALTON          MOCLDY    70  70 100 CALM      29.97F
BELLEVILLE     CLOUDY    73  73 100 E5        29.96F
CAHOKIA*       CLOUDY    76  73  91 CALM      29.96F
SPARTA*        CLOUDY    77  75  93 SE3       29.99R
$$

ILZ064>066-069>071-074>076-080>082-084>086-088>090-092>094-210600-
SOUTH-CENTRAL ILLINOIS

CITY           SKY/WX    TMP DP  RH WIND       PRES   REMARKS
CARBONDALE     CLOUDY    80  75  84 S9        29.99F HX  85
CAIRO*         MOCLDY    82  73  76 S6        30.02S HX  87
MARION         CLOUDY    81  75  83 S5        30.01S HX  86
MT. VERNON     CLOUDY    75  66  73 N7        30.03R
CENTRALIA*     LGT RAIN  70  67  90 E6        30.03R
SALEM*         TSTM      74  73  96 E8        30.02F
$$

ILZ067-068-072-073-078-083-087-091-210600-
SOUTHEAST ILLINOIS

CITY           SKY/WX    TMP DP  RH WIND       PRES   REMARKS
LAWRENCEVILLE  MOCLDY    72  69  90 S7        30.01F
FLORA*         TSTM      70  68  95 W13G35    30.10R
FAIRFIELD*     TSTM      79  73  83 N15       30.06R HX  82
HARRISBURG*    CLOUDY    75  74  94 SE3       30.03S
ROBINSON*      MOCLDY    74  71  92 S6        30.01F
CARMI*         CLOUDY    75  73  94 S3        30.02R
$$

ABBREVIATIONS USED IN REMARKS
   TC - TEMPERATURE IN CELSIUS
  WCI - WIND CHILL INDEX
   HX - HEAT INDEX
  VSB - VISIBILITY
$$




USA.gov is the U.S. government's official web portal to all federal, state and local government web resources and services.